sat.trackr.live / text

‹ back to catalog

YAOGAN-43 01E

NORAD 60462 · 2024-148E

PAYLOAD ACTIVE UNKNOWN

§ Identity

Operator
Country
PRC
Launch date
2024-08-16
Launch site
XICLF
Launch vehicle
Mass (kg)
RCS (m²)

External: N2YO · Heavens-Above · Gunter

§ Orbital elements

Epoch: 2026-05-25T03:23:57.941376Z

Period
94.55 min
Inclination
34.9926°
Eccentricity
0.0005324
Mean motion
15.23067245 rev/d
Perigee alt
492.9 km
Apogee alt
500.3 km
Semi-major
6,874.7 km
B*
4.7050e-4
RAAN
305.1410°
Arg perigee
6.0696°
Mean anomaly
354.0083°
Rev number
9,864

§ Raw data

YAOGAN-43 01E1 60462U 24148E   26145.14164284  .00011341  00000+0  47050-3 0  99932 60462  34.9926 305.1410 0005324   6.0696 354.0083 15.23067245 98643

JSON: /api/v1/satellites/60462 · /tle

For live sub-satellite position, see the globe view (requires WebGL).

§ Visibility from observer

Set your observer location to see the next 7 days of passes ≥ 10°. The values pass through the URL so the page stays shareable.

No JS? Fill the form by hand. The geolocation button needs JavaScript.